Location: Berlin
(38.3226°N, 75.2177°W)
Time: 18:12:05
(UTC+00:00)

Cosmos 1833 Rocket - Pass Details

Date: 26 October 2020
Orbit: 832 x 840 km, 71.0° (Epoch: 03 December)

Event Time Altitude Azimuth Distance (km) Brightness Sun altitude
Exits shadow 09:09:09 29° 186° (S) 1,479 3.8 -26.5°
Maximum altitude 09:12:03 70° 109° (ESE) 891 2.9 -25.9°
Drops below altitude 10° 09:17:39 10° 27° (NNE) 2,461 5.5 -24.8°
Sets 09:20:07 0° 25° (NNE) 3,400 6.2 -24.4°
